SQ2WB-13 Weather Reports


time (UTC)temp
F
wind
direction
speed
knots
gust
knots
rain 1hr
in
rain 24hr
in
rain mn
in
humidity
%
barometer
mb
20260503021500 55 174 2.6 4.3 0.00 0.00 0.00 59 1008.1
20260503020001 55 180 2.6 2.6 0.00 0.00 0.00 58 1008.4
20260503014501 55 180 2.6 2.6 0.00 0.00 0.00 58 1008.4
20260503013002 55 175 2.6 3.5 0.00 0.00 0.00 58 1008.4
20260503011501 55 174 1.7 2.6 0.00 0.00 0.00 57 1008.4
20260503010001 55 157 0.9 2.6 0.00 0.00 0.00 57 1008.4
20260503004501 55 146 1.7 1.7 0.00 0.00 0.00 56 1008.4
20260503003001 57 167 1.7 2.6 0.00 0.00 0.00 54 1008.4
20260503001502 57 173 2.6 2.6 0.00 0.00 0.00 54 1008.8
20260503000002 57 164 0.9 2.6 0.00 0.00 0.00 56 1008.8
20260502234501 57 170 1.7 2.6 0.00 0.00 0.00 55 1008.8
20260502233002 57 146 0.9 1.7 0.00 0.00 0.00 56 1008.8
20260502231501 57 121 0.0 0.0 0.00 0.00 0.00 55 1008.8
20260502230002 59 162 1.7 2.6 0.00 0.00 0.00 53 1008.8
20260502224501 59 162 0.9 1.7 0.00 0.00 0.00 54 1008.8
20260502223002 59 148 0.9 0.9 0.00 0.00 0.00 54 1008.8
20260502221501 57 156 0.9 0.9 0.00 0.00 0.00 56 1008.8
20260502220001 59 146 0.0 0.9 0.00 0.00 0.00 55 1009.1
20260502214501 59 127 0.0 0.0 0.00 0.00 0.00 54 1009.1
20260502213002 59 155 0.9 0.9 0.00 0.00 0.00 53 1009.1
20260502211501 59 146 0.0 0.0 0.00 0.00 0.00 53 1009.1
20260502210001 59 144 0.9 0.9 0.00 0.00 0.00 52 1009.1
20260502204501 57 126 0.0 0.0 0.00 0.00 0.00 54 1009.1
20260502203002 57 118 0.0 0.0 0.00 0.00 0.00 55 1009.1
20260502201501 59 116 0.0 0.0 0.00 0.00 0.00 54 1009.1
20260502200002 60 118 0.0 0.0 0.00 0.00 0.00 52 1009.1
20260502194502 62 132 0.0 0.9 0.00 0.00 0.00 50 1009.4
20260502193001 62 143 0.9 0.9 0.00 0.00 0.00 47 1009.4
20260502191501 64 154 0.0 0.0 0.00 0.00 0.00 48 1009.1
20260502190001 64 140 0.9 0.9 0.00 0.00 0.00 46 1009.4
20260502184501 66 139 0.0 0.0 0.00 0.00 0.00 44 1009.4
20260502183001 68 154 0.9 1.7 0.00 0.00 0.00 43 1009.1
20260502181502 69 152 0.9 0.9 0.00 0.00 0.00 41 1009.1
20260502163002 77 226 0.9 1.7 0.00 0.00 0.00 31 1009.8
20260502161501 78 194 2.6 3.5 0.00 0.00 0.00 31 1010.5
20260502151501 78 164 2.6 3.5 0.00 0.00 0.00 29 1010.8
20260502123004 80 220 2.6 2.6 0.00 0.00 0.00 27 1012.5
20260502121501 78 189 2.6 5.2 0.00 0.00 0.00 29 1013.2
20260502114501 80 257 3.5 4.3 0.00 0.00 0.00 29 1013.5
20260502113001 80 188 3.5 4.3 0.00 0.00 0.00 28 1013.5
20260502111501 78 134 2.6 2.6 0.00 0.00 0.00 28 1013.5
20260502110001 77 149 5.2 6.1 0.00 0.00 0.00 28 1013.8
20260502104501 78 163 3.5 4.3 0.00 0.00 0.00 30 1014.2
20260502103001 80 157 0.9 1.7 0.00 0.00 0.00 28 1014.2
20260502101500 78 233 3.5 4.3 0.00 0.00 0.00 30 1014.2
20260502091501 75 90 1.7 2.6 0.00 0.00 0.00 31 1014.5
20260502071501 68 162 0.9 0.9 0.00 0.00 0.00 40 1014.9
20260502070001 66 169 0.9 1.7 0.00 0.00 0.00 44 1015.2
20260502064501 64 201 1.7 2.6 0.00 0.00 0.00 43 1015.2
20260502063001 62 182 1.7 1.7 0.00 0.00 0.00 43 1015.2
20260502061501 60 148 0.9 0.9 0.00 0.00 0.00 49 1015.2
20260502060001 59 128 0.0 0.0 0.00 0.00 0.00 52 1015.2
20260502054502 57 174 0.9 1.7 0.00 0.00 0.00 56 1015.2
20260502053001 55 156 0.9 1.7 0.00 0.00 0.00 61 1015.2
20260502051501 51 150 0.9 1.7 0.00 0.00 0.00 63 1015.2
20260502050000 50 164 0.9 0.9 0.00 0.00 0.00 64 1015.2
20260502044501 48 125 0.0 0.0 0.00 0.00 0.00 69 1015.2
20260502043001 48 128 0.0 0.0 0.00 0.00 0.00 70 1015.2
20260502041501 46 130 0.0 0.0 0.00 0.00 0.00 70 1015.2
20260502040002 46 130 0.0 0.0 0.00 0.00 0.00 71 1015.2
20260502034501 46 129 0.0 0.0 0.00 0.00 0.00 73 1015.2
20260502033001 46 127 0.0 0.0 0.00 0.00 0.00 71 1015.2
20260502031501 46 129 0.0 0.0 0.00 0.00 0.00 70 1015.2
20260502030001 48 124 0.0 0.0 0.00 0.00 0.00 70 1015.2
20260502024501 48 129 0.0 0.0 0.00 0.00 0.00 69 1015.2
20260502023001 48 135 0.9 0.9 0.00 0.00 0.00 66 1015.2